This is the latest recevied weather packets stored in our database for station/object N8TWM-13. If no packets are shown the sender has not sent any weather packets the latest 10 day(s).
| Time | Temp. | Humidity | Pressure | Rain* | Wind** | Luminosity | Snow |
|---|---|---|---|---|---|---|---|
| 1778097383 | 12.22° C | 56% | 1012.5 hPa | 0 mm | - | 201 W/m² | - |
| 1778097080 | 12.22° C | 57% | 1012.4 hPa | 0 mm | - | 149 W/m² | - |
| 1778096777 | 12.22° C | 56% | 1012.4 hPa | 0 mm | - | 126 W/m² | - |
| 1778096473 | 12.22° C | 56% | 1012.2 hPa | 0 mm | - | 164 W/m² | - |
| 1778096171 | 12.78° C | 58% | 1012.5 hPa | 0 mm | - | 164 W/m² | - |
| 1778095868 | 12.22° C | 56% | 1012.6 hPa | 0 mm | - | 210 W/m² | - |
| 1778095565 | 12.22° C | 57% | 1012.4 hPa | 0 mm | - | 170 W/m² | - |
| 1778095261 | 12.22° C | 56% | 1012.5 hPa | 0 mm | - | 187 W/m² | - |
| 1778094957 | 12.78° C | 57% | 1012.2 hPa | 0 mm | - | 204 W/m² | - |
| 1778094653 | 12.22° C | 57% | 1012.2 hPa | 0 mm | - | 218 W/m² | - |
| 1778094351 | 12.22° C | 56% | 1012 hPa | 0 mm | - | 196 W/m² | - |
| 1778094048 | 12.22° C | 56% | 1012.3 hPa | 0 mm | - | 154 W/m² | - |
| 1778093745 | 12.22° C | 57% | 1012.6 hPa | 0 mm | - | 150 W/m² | - |
| 1778093442 | 12.22° C | 58% | 1012.5 hPa | 0 mm | - | 134 W/m² | - |
| 1778093139 | 12.22° C | 58% | 1012.6 hPa | 0 mm | - | 124 W/m² | - |
| 1778092836 | 11.67° C | 57% | 1012.7 hPa | 0 mm | - | 143 W/m² | - |
| 1778092532 | 12.22° C | 55% | 1012.8 hPa | 0 mm | - | 148 W/m² | - |
| 1778092229 | 12.78° C | 56% | 1012.6 hPa | 0 mm | - | 168 W/m² | - |
| 1778091926 | 13.33° C | 56% | 1012.2 hPa | 0 mm | - | 262 W/m² | - |
| 1778091623 | 13.33° C | 56% | 1012.2 hPa | 0 mm | - | 252 W/m² | - |
| 1778091321 | 12.78° C | 56% | 1012.3 hPa | 0 mm | - | 510 W/m² | - |
| 1778091018 | 12.78° C | 56% | 1012.3 hPa | 0 mm | - | 327 W/m² | - |
| 1778090714 | 12.78° C | 57% | 1012.5 hPa | 0 mm | - | 225 W/m² | - |
| 1778090411 | 12.22° C | 56% | 1012.2 hPa | 0 mm | - | 314 W/m² | - |
| 1778090108 | 12.78° C | 56% | 1012.4 hPa | 0 mm | - | 212 W/m² | - |
* Rain latest hour (hover to see other rain measurements)
** Current wind speed in m/s (hover to see current wind gust speed)